Samos, Greece

7:12 AM EEST on April 24, 2017 (GMT +0300)
Samos

Weather History for LGSM - August, 2013

Change the Weather History Date:

Thursday, August 29, 2013

  Actual Average Record
Temperature  
Mean Temperature 84 °F -  
Max Temperature 96 °F 83 °F 96 °F (2013)
Min Temperature 73 °F 66 °F 66 °F (1997)
Cooling Degree Days 20    
Growing Degree Days 34 (Base 50)    
Moisture  
Dew Point 58 °F    
Average Humidity 41    
Maximum Humidity 69    
Minimum Humidity 16    
Precipitation  
Precipitation 0.00 in 0.03 in - ()
Sea Level Pressure  
Sea Level Pressure 29.80 in    
Wind  
Wind Speed 7 mph ()    
Max Wind Speed 17 mph    
Max Gust Speed -    
Visibility 6.0 miles    
Events      
Averages and records for this station are not official NWS values.
T = Trace of Precipitation, MM = Missing Value Source: Averaged Metar Reports

Daily Weather History Graph

Daily Weather History Graph

Search for Another Location

Airport or City:

Trip Planner

Search our weather history database for the weather conditions in past years. The results will help you decide how hot, cold, wet, or windy it might be!

Date:

Astronomy

Aug. 29, 2013 Rise Set
Actual Time 6:39 AM EEST 7:45 PM EEST
Civil Twilight 6:12 AM EEST 8:12 PM EEST
Nautical Twilight 5:40 AM EEST 8:44 PM EEST
Astronomical Twilight 5:07 AM EEST 9:18 PM EEST
Moon 12:20 AM EEST (8/29) 2:55 PM EEST (8/29)
Length of Visible Light 14h 00m
Length of Day
13h 06m
Last Quarter, 41% of the Moon is Illuminated
Aug 29
Last Quarter
Sep 5
New
Sep 12
First Quarter
Sep 19
Full
Sep 27
Last Quarter

Hourly Weather History & Observations

Time (EEST) Temp. Heat Index Dew Point Humidity Pressure Visibility Wind Dir Wind Speed Gust Speed Precip Events Conditions
4:50 AM 73.4 °F - 60.8 °F 65% 29.80 in - Calm Calm - N/A   Clear
5:20 AM 73.4 °F - 60.8 °F 65% 29.80 in - Calm Calm - N/A   Clear
5:50 AM 73.4 °F - 62.6 °F 69% 29.80 in - Calm Calm - N/A   Clear
6:20 AM 73.4 °F - 62.6 °F 69% 29.80 in - North 3.5 mph - N/A   Clear
6:50 AM 73.4 °F - 62.6 °F 69% 29.80 in - Variable 3.5 mph - N/A   Clear
7:20 AM 75.2 °F - 64.4 °F 69% 29.80 in - NNW 3.5 mph - N/A   Clear
7:50 AM 77.0 °F - 62.6 °F 61% 29.80 in - North 4.6 mph - N/A   Clear
8:20 AM 78.8 °F - 62.6 °F 57% 29.80 in - Variable 2.3 mph - N/A   Clear
8:50 AM 82.4 °F 83.4 °F 62.6 °F 51% 29.80 in - North 8.1 mph - N/A   Clear
9:00 AM 82 °F - 62 °F 42% 29.83 in 6 mi North 8.1 mph - -  
9:20 AM 84.2 °F 84.4 °F 60.8 °F 45% 29.80 in - NNE 12.7 mph - N/A   Clear
9:50 AM 84.2 °F 84.4 °F 60.8 °F 45% 29.80 in - NNE 11.5 mph - N/A   Clear
10:20 AM 86.0 °F 86.1 °F 60.8 °F 43% 29.80 in - NNE 13.8 mph - N/A   Clear
10:50 AM 87.8 °F 86.1 °F 55.4 °F 33% 29.83 in - NNE 13.8 mph - N/A   Clear
11:20 AM 89.6 °F 87.3 °F 53.6 °F 29% 29.83 in - NNE 13.8 mph - N/A   Clear
11:50 AM 91.4 °F 89.4 °F 55.4 °F 29% 29.80 in - North 17.3 mph - N/A   Clear
12:20 PM 91.4 °F 89.4 °F 55.4 °F 29% 29.80 in - North 17.3 mph - N/A   Clear
12:50 PM 93.2 °F 91.3 °F 55.4 °F 28% 29.80 in - North 16.1 mph - N/A   Clear
1:20 PM 93.2 °F 91.3 °F 55.4 °F 28% 29.80 in - North 16.1 mph - N/A   Clear
1:50 PM 93.2 °F 90.8 °F 53.6 °F 26% 29.80 in - North 12.7 mph - N/A   Clear
2:20 PM 95.0 °F 93.0 °F 55.4 °F 26% 29.80 in - North 16.1 mph - N/A   Clear
2:50 PM 95.0 °F 92.7 °F 53.6 °F 25% 29.80 in - North 11.5 mph - N/A   Clear
3:00 PM 95 °F - 54 °F 16% 29.83 in 6 mi North 11.5 mph - -  
3:20 PM 95.0 °F 92.7 °F 53.6 °F 25% 29.80 in - North 11.5 mph - N/A   Clear
3:50 PM 96.8 °F 94.4 °F 53.6 °F 23% 29.80 in - North 11.5 mph - N/A   Clear
4:20 PM 96.8 °F 94.4 °F 53.6 °F 23% 29.80 in - North 11.5 mph - N/A   Clear
4:50 PM 93.2 °F 91.3 °F 55.4 °F 28% 29.80 in - North 15.0 mph - N/A   Clear
5:20 PM 91.4 °F 89.1 °F 53.6 °F 28% 29.80 in - North 11.5 mph - N/A   Clear
5:50 PM 91.4 °F 89.9 °F 57.2 °F 31% 29.80 in - North 13.8 mph - N/A   Clear
6:20 PM 89.6 °F 88.1 °F 57.2 °F 33% 29.80 in - North 13.8 mph - N/A   Clear
6:50 PM 87.8 °F 87.1 °F 59.0 °F 38% 29.80 in - North 12.7 mph - N/A   Clear
7:20 PM 86.0 °F 85.4 °F 59.0 °F 40% 29.80 in - North 12.7 mph - N/A   Clear
7:50 PM 84.2 °F 84.4 °F 60.8 °F 45% 29.80 in - North 11.5 mph - N/A   Clear
8:20 PM 82.4 °F 82.9 °F 60.8 °F 48% 29.80 in - North 11.5 mph - N/A   Clear
8:50 PM 80.6 °F 81.5 °F 60.8 °F 51% 29.80 in - North 13.8 mph - N/A   Clear
9:00 PM 81 °F - 60 °F 39% 29.81 in 6 mi North 13.8 mph - -